Regional Weather Roundup
Issued by NWS

Home | Current Version | Previous Version | Text Only | Print | Product List | Glossary On
Versions: 1 2 3 4 5 6 7 8 9 10 11 12 13 14 15 16 17 18 19 20 21 22 23 24 25 26 27
000
ASUS45 KBOU 071207
RWRCO

WEATHER ROUNDUP FOR COLORADO
NATIONAL WEATHER SERVICE DENVER/BOULDER CO
500 AM MST WED DEC 07 2016

NOTE: "FAIR" INDICATES FEW OR NO CLOUDS BELOW 12000 FEET WITH NO
SIGNIFICANT WEATHER AND/OR OBSTRUCTIONS TO VISIBILITY.

COZ001>005-013-030-031-071300-
...NORTHWEST COLORADO...

CITY           SKY/WX    TMP DP  RH WIND       PRES   REMARKS
CRAIG          MOCLDY     9   5  84 CALM      29.97R
HAYDEN         CLOUDY    10   7  85 SW3       29.94R
MEEKER         LGT SNOW  14  11  87 CALM      29.95R FOG
MOUNT WERNER   NOT AVBL
STEAMBOAT SPGS CLOUDY    11   8  85 CALM      29.92R
WALDEN           N/A      1  -4  78 CALM      29.84R
$$

COZ006>008-011-071300-
...WEST CENTRAL VALLEYS...

CITY           SKY/WX    TMP DP  RH WIND       PRES   REMARKS
GRAND JUNCTION FAIR      14  14 100 NE3       29.99R
MONTROSE       CLOUDY    23  17  78 CALM      29.99R
EAGLE          FAIR      12   8  84 E6        29.94R WCI   3
RIFLE          FAIR      19  17  92 W3        29.97R
DELTA          FAIR      23  19  87 SW8       29.98R WCI  14
NUCLA          CLOUDY    23  19  86 CALM      30.00R
$$

COZ017>023-064>068-071300-
...SOUTHWEST COLORADO...

CITY           SKY/WX    TMP DP  RH WIND       PRES   REMARKS
DURANGO        FAIR      26  14  60 W14       29.86R WCI  14
CORTEZ         CLOUDY    26  19  74 N3        29.97R
PAGOSA SPRINGS FAIR      27  17  64 SW7       29.84R WCI  20
TELLURIDE      LGT SNOW  13  11  92 W7        29.89R WCI   3
WOLF CREEK PAS LGT SNOW   9   9 100 SW22G40   29.76S WCI -11
$$

COZ009-010-012-014-032>034-037-058>063-071300-
...CENTRAL COLORADO...

CITY           SKY/WX    TMP DP  RH WIND       PRES   REMARKS
ASPEN          CLOUDY    14   9  80 N9        29.86R WCI   2
BUENA VISTA    CLOUDY    17   7  63 NW7       29.80R WCI   8
COPPER MTN     CLOUDY     1  -6  71 MISG      29.66R
BERTHOUD PASS  SNOW      -8 -18  59 NW30      29.60R VSB 1/2 WCI -36
COTTONWOOD PAS CLOUDY    16   1  53 W14G26    29.73R WCI   1
GUNNISON       FAIR      16  12  84 CALM      29.86R
KREMMLING      FAIR      14   3  62 CALM      29.88R
LEADVILLE      CLOUDY     5  -4  66 NW18G25   29.74R WCI -15
MONARCH PASS   SNOW       3   0  85 W37G43    29.74R VSB 1/2 WCI -24
SALIDA         CLOUDY    14   9  82 CALM      29.89R
SUNLIGHT       LGT SNOW   1  -2  85 W5        29.80S WCI  -8
WILKERSON PASS CLOUDY     3  -2  78 NW9G25    29.69R WCI -11
$$

COZ069>075-071300-
...SAN LUIS VALLEY/SANGRE DE CRISTO MOUNTAINS...

CITY           SKY/WX    TMP DP  RH WIND       PRES   REMARKS
ALAMOSA        MOCLDY    19  14  81 N13       29.81R WCI   6
LA VETA PASS   LGT SNOW  18  14  86 NE14G40   29.72R WCI   4
SAGUACHE       FAIR      18   7  62 NW14      29.83R WCI   4
$$

COZ035-036-038>040-071300-
...NORTHERN COLORADO FRONT RANGE...

CITY           SKY/WX    TMP DP  RH WIND       PRES   REMARKS
DENVER INTL AP FLURRIES  15  12  88 E8        29.97R WCI   4
DMNS CITY PARK   N/A     16  13  88 E7G16     29.99R WCI   6
AURORA         CLOUDY    14  12  93 E7        29.96R WCI   4
FRONT RANGE AP FLURRIES  18  16  93 E6        29.98R WCI   9
ERIE MUNI ARPT LGT SNOW  18  16  91 NE3       30.01R
BOULDER MUN AP LGT SNOW  18  18 100 NE3       29.99R
CENTENNIAL     FLURRIES  14  10  84 E5        29.94R WCI   6
BROOMFIELD     LGT SNOW  18  16  93 NE6       29.98R WCI   9
FORT COLLINS   FAIR      10   7  85 N15       30.05R WCI  -6
LONGMONT       LGT SNOW  19  15  84 N10G20    30.05R WCI   7
$$

COZ041-046-047-076>085-087-088-071300-
...PIKES PEAK/PALMER DIVIDE AND SOUTHERN FOOTHILLS...

CITY           SKY/WX    TMP DP  RH WIND       PRES   REMARKS
COLO. SPRINGS  MOCLDY    12   5  73 N8        29.91R WCI   0
A. F. ACADEMY  FAIR      10   4  77 NW5       29.88R WCI   2
SCHRIEVER AFB  NOT AVBL
ELLICOTT       LGT RAIN N/A N/A N/A NE13        N/A
FALCON         CLOUDY    10   6  83 N8        29.88R WCI  -1
FORT CARSON    CLOUDY    11   7  83 NW6       29.91R WCI   2
LIMON          CLOUDY    13  11  92 NE10      29.96R WCI   0
MONUMENT HILL  FLURRIES   9   5  85 CALM      29.88R
TRINIDAD       CLOUDY    14   5  67 NW10      29.91R WCI   1
$$

COZ042>045-048>051-090-091-071300-
...NORTHEAST COLORADO...

CITY           SKY/WX    TMP DP  RH WIND       PRES   REMARKS
GREELEY ARPT   LGT SNOW  10   6  84 N16       30.07R FOG     WCI  -7
AKRON          FLURRIES  12   9  87 NE10      30.04R WCI  -1
BURLINGTON     LGT SNOW  18  13  80 NE15      30.01R WCI   4
WRAY           MOCLDY    14  12  92 NE10      30.10  WCI   1
STERLING       LGT SNOW  14  12  92 NE10      30.09R WCI   1
HOLYOKE        LGT SNOW  16  10  79 NE12      30.12R WCI   3
FORT MORGAN    LGT SNOW  13  10  86 NE14      30.06R WCI  -2
$$

COZ086-089-092>099-071300-
...SOUTHEAST COLORADO...

CITY           SKY/WX    TMP DP  RH WIND       PRES   REMARKS
PUEBLO         CLOUDY    21   8  57 N13       29.97R WCI   9
LA JUNTA       MOCLDY    17   6  62 N8        29.95R WCI   7
LAMAR          MOCLDY    15   5  64 E8        29.94R WCI   4
SPRINGFIELD      N/A      3   0  87 CALM      29.90R
$$




USA.gov is the U.S. government's official web portal to all federal, state and local government web resources and services.